Burlington, IA

7:55 AM CST on December 17, 2017 (GMT -0600)
Burlington Regional

Weather History for KBRL - February, 2012

Change the Weather History Date:

Friday, February 24, 2012

  Actual Average Record
Temperature  
Mean Temperature 30 °F 33 °F  
Max Temperature 34 °F 42 °F 76 °F (1930)
Min Temperature 26 °F 24 °F -7 °F (1910)
Degree Days  
Heating Degree Days 35 32  
Month to date heating degree days 753 852  
Since 1 July heating degree days 3819 4253  
Cooling Degree Days 0 0  
Month to date cooling degree days 0 0  
Year to date cooling degree days 0 0  
Moisture  
Dew Point 27 °F    
Average Humidity 80    
Maximum Humidity 100    
Minimum Humidity 59    
Precipitation  
Precipitation 0.09 in 0.07 in 1.49 in (2001)
Month to date precipitation 1.15 1.32  
Year to date precipitation 1.44 2.56  
Sea Level Pressure  
Sea Level Pressure 29.80 in    
Wind  
Wind Speed 13 mph (NW)    
Max Wind Speed 23 mph    
Max Gust Speed 33 mph    
Visibility 6 miles    
Events Rain , Snow    
T = Trace of Precipitation, MM = Missing Value Source: NWS Daily Summary

Daily Weather History Graph

Daily Weather History Graph

Search for Another Location

Airport or City:

Trip Planner

Search our weather history database for the weather conditions in past years. The results will help you decide how hot, cold, wet, or windy it might be!

Date:

Astronomy

Feb. 24, 2012 Rise Set
Actual Time 6:46 AM CST 5:49 PM CST
Civil Twilight 6:19 AM CST 6:17 PM CST
Nautical Twilight 5:47 AM CST 6:48 PM CST
Astronomical Twilight 5:15 AM CST 7:20 PM CST
Moon 7:40 AM CST (2/24) 8:54 PM CST (2/24)
Length of Visible Light 11h 58m
Length of Day
11h 02m
Waxing Crescent, 8% of the Moon is Illuminated
Feb 24
Waxing Crescent
Feb 29
First Quarter
Mar 8
Full
Mar 14
Last Quarter
Mar 22
New

Hourly Weather History & Observations

Time (CST) Temp. Windchill Dew Point Humidity Pressure Visibility Wind Dir Wind Speed Gust Speed Precip Events Conditions
12:00 AM 33.8 °F 29.6 °F 33.8 °F 100% 29.46 in 4.0 mi North 4.6 mph - 0.00 in Snow Light Snow
12:16 AM 33.8 °F 28.6 °F 33.8 °F 100% 29.46 in 6.0 mi NNW 5.8 mph - 0.00 in Rain Light Freezing Rain
12:44 AM 33.8 °F 28.6 °F 33.8 °F 100% 29.47 in 3.0 mi NNW 5.8 mph - 0.01 in Snow Light Snow
12:53 AM 33.1 °F 27.7 °F 32.0 °F 96% 29.49 in 2.5 mi NNW 5.8 mph - 0.01 in Snow Light Snow
1:00 AM 33.8 °F 27.7 °F 32.0 °F 93% 29.48 in 2.5 mi NW 6.9 mph - 0.00 in Snow Light Snow
1:21 AM 33.8 °F 27.0 °F 32.0 °F 93% 29.48 in 1.8 mi NNW 8.1 mph - 0.01 in Snow Light Snow
1:53 AM 33.1 °F 24.9 °F 32.0 °F 96% 29.51 in 1.2 mi NNW 10.4 mph - 0.01 in Snow Light Snow
2:53 AM 33.1 °F 22.2 °F 32.0 °F 96% 29.55 in 1.2 mi North 17.3 mph 24.2 mph 0.01 in Snow Light Snow
3:53 AM 33.1 °F 21.9 °F 32.0 °F 96% 29.59 in 1.5 mi NNW 18.4 mph 25.3 mph 0.01 in Snow Light Snow
4:53 AM 33.1 °F 23.0 °F 30.9 °F 92% 29.66 in 1.5 mi NNW 15.0 mph 26.5 mph 0.01 in Snow Light Snow
5:06 AM 32.0 °F 20.8 °F 30.2 °F 93% 29.65 in 2.5 mi NNW 17.3 mph 27.6 mph 0.00 in Snow Light Snow
5:14 AM 33.8 °F 22.5 °F 30.2 °F 87% 29.66 in 4.0 mi NNW 19.6 mph 27.6 mph 0.00 in Snow Light Snow
5:28 AM 32.0 °F 21.6 °F 30.2 °F 93% 29.67 in 2.5 mi NNW 15.0 mph - 0.00 in Snow Light Snow
5:43 AM 32.0 °F 21.6 °F 30.2 °F 93% 29.68 in 3.0 mi NW 15.0 mph 21.9 mph 0.00 in Snow Light Snow
5:53 AM 32.0 °F 22.1 °F 30.9 °F 96% 29.70 in 4.0 mi NW 13.8 mph 21.9 mph 0.00 in Snow Light Snow
6:53 AM 32.0 °F 22.1 °F 30.0 °F 92% 29.75 in 6.0 mi NW 13.8 mph 25.3 mph N/A   Overcast
7:22 AM 32.0 °F 21.6 °F 28.4 °F 87% 29.75 in 3.0 mi NW 15.0 mph 24.2 mph 0.01 in Snow Light Snow
7:42 AM 32.0 °F 21.6 °F 30.2 °F 93% 29.77 in 5.0 mi NW 15.0 mph 21.9 mph 0.01 in   Overcast
7:53 AM 32.0 °F 22.1 °F 28.9 °F 88% 29.79 in 5.0 mi NW 13.8 mph 24.2 mph 0.01 in   Overcast
8:53 AM 32.0 °F 23.0 °F 28.9 °F 88% 29.83 in 5.0 mi WNW 11.5 mph 20.7 mph 0.01 in   Overcast
9:32 AM 32.0 °F 22.1 °F 30.2 °F 93% 29.83 in 3.0 mi WNW 13.8 mph 24.2 mph 0.01 in Snow Light Snow
9:45 AM 32.0 °F 21.6 °F 30.2 °F 93% 29.84 in 4.0 mi WNW 15.0 mph 24.2 mph 0.02 in Snow Light Snow
9:53 AM 32.0 °F 22.1 °F 30.0 °F 92% 29.86 in 5.0 mi WNW 13.8 mph 23.0 mph 0.02 in   Overcast
10:53 AM 32.0 °F 20.8 °F 28.0 °F 85% 29.90 in 10.0 mi WNW 17.3 mph 27.6 mph N/A   Overcast
11:20 AM 33.8 °F 23.5 °F 26.6 °F 75% 29.90 in 10.0 mi WNW 16.1 mph 29.9 mph N/A   Scattered Clouds
11:42 AM 33.8 °F 23.9 °F 26.6 °F 75% 29.91 in 10.0 mi WNW 15.0 mph 25.3 mph N/A   Mostly Cloudy
11:53 AM 32.0 °F 21.2 °F 26.1 °F 79% 29.94 in 10.0 mi WNW 16.1 mph 25.3 mph N/A   Overcast
12:53 PM 32.0 °F 20.5 °F 24.1 °F 73% 29.96 in 10.0 mi NW 18.4 mph 29.9 mph N/A   Mostly Cloudy
1:53 PM 32.0 °F 20.1 °F 21.9 °F 66% 29.98 in 10.0 mi WNW 19.6 mph 29.9 mph N/A   Overcast
2:53 PM 32.0 °F 22.1 °F 23.0 °F 69% 30.00 in 10.0 mi WNW 13.8 mph 27.6 mph N/A   Overcast
3:53 PM 32.0 °F 20.1 °F 23.0 °F 69% 30.02 in 10.0 mi WNW 19.6 mph 25.3 mph N/A   Mostly Cloudy
4:53 PM 32.0 °F 20.8 °F 19.9 °F 61% 30.03 in 10.0 mi WNW 17.3 mph 28.8 mph N/A   Clear
5:53 PM 30.0 °F 20.5 °F 19.9 °F 66% 30.05 in 10.0 mi WNW 11.5 mph 23.0 mph N/A   Clear
6:53 PM 28.9 °F 19.2 °F 19.0 °F 67% 30.07 in 10.0 mi WNW 11.5 mph 21.9 mph N/A   Partly Cloudy
7:53 PM 28.0 °F 18.1 °F 19.0 °F 69% 30.09 in 10.0 mi WNW 11.5 mph 21.9 mph N/A   Clear
8:53 PM 27.0 °F 19.5 °F 19.0 °F 72% 30.10 in 10.0 mi WNW 6.9 mph - N/A   Clear
9:53 PM 27.0 °F 20.5 °F 19.9 °F 75% 30.11 in 10.0 mi West 5.8 mph - N/A   Clear
10:53 PM 26.6 °F 17.5 °F 19.4 °F 74% 30.08 in 10.0 mi West 9.2 mph - N/A   Clear
11:53 PM 27.0 °F 18.7 °F 21.0 °F 78% 30.10 in 10.0 mi West 8.1 mph - N/A   Overcast